Regional Weather Roundup
Issued by NWS

Home | Current Version | Previous Version | Text Only | Print | Product List | Glossary On
Versions: 1 2 3 4 5 6 7 8 9 10 11 12 13 14 15 16 17 18 19 20 21 22 23 24 25 26 27 28 29 30 31 32 33 34 35 36 37 38 39 40 41 42 43 44 45 46 47 48 49 50
000
ASUS44 KOUN 271310
RWROK

WEATHER ROUNDUP FOR OKLAHOMA
NATIONAL WEATHER SERVICE NORMAN OK
800 AM CDT WED AUG 27 2014

NOTE: "FAIR" INDICATES FEW OR NO CLOUDS BELOW 12,000 FEET WITH NO
      SIGNIFICANT WEATHER AND/OR OBSTRUCTIONS TO VISIBILITY.

OKZ001>007-009>012-014-015-017-271400-
NORTHWEST OKLAHOMA AND THE PANHANDLE

CITY           SKY/WX    TMP DP  RH WIND       PRES   REMARKS
GAGE           LGT RAIN  67  66  97 CALM      30.15R
ENID/WOODRING  PTSUNNY   73  68  83 CALM      30.10R
$$

OKZ016-021>023-033>039-044-045-271400-
SOUTHWEST OKLAHOMA

CITY           SKY/WX    TMP DP  RH WIND       PRES   REMARKS
LAWTON/REGL    SUNNY     75  67  76 E5        30.09R
LAWTON/FT SILL SUNNY     75  69  80 E3        30.08R
FREDERICK      SUNNY     75  66  73 E7        30.05R
CLINTON        SUNNY     76  66  71 SE5       30.13R
HOBART         SUNNY     76  66  71 SE6       30.10R
ALTUS AFB      SUNNY     75  67  77 SE7       30.08R
$$

OKZ018>020-024>031-271400-
CENTRAL OKLAHOMA

CITY           SKY/WX    TMP DP  RH WIND       PRES   REMARKS
OKLAHOMA CITY  MOSUNNY   74  69  85 SE5       30.11R
OKC/WILEY POST SUNNY     74  69  85 S5        30.11R
OKC/TINKER AFB SUNNY     73  68  85 S7        30.11R
STILLWATER     SUNNY     75  69  81 CALM      30.11R
GUTHRIE        SUNNY     75  68  78 S5        30.11R
$$

OKZ008-013-054>072-271400-
NORTHEAST OKLAHOMA

CITY           SKY/WX    TMP DP  RH WIND       PRES   REMARKS
TULSA          PTSUNNY   79  71  76 CALM      30.08R
TULSA/JONES    SUNNY     76  70  82 CALM      30.10R
PONCA CITY     SUNNY     75  68  78 CALM      30.11R
BARTLESVILLE   SUNNY     72  70  93 CALM      30.11R
MUSKOGEE       SUNNY     75  71  87 CALM      30.10R
$$

OKZ032-040>043-046>053-073>077-271400-
SOUTH CENTRAL/SOUTHEAST OKLAHOMA

CITY           SKY/WX    TMP DP  RH WIND       PRES   REMARKS
ARDMORE/DWNTWN SUNNY     73  70  88 CALM      30.08R
MCALESTER      SUNNY     75  71  87 CALM      30.09R
$$



USA.gov is the U.S. government's official web portal to all federal, state and local government web resources and services.